Regional Weather Roundup
Issued by NWS

Home | Current Version | Previous Version | Text Only | Print | Product List | Glossary Off
Versions: 1 2 3 4 5 6 7 8 9 10 11 12 13 14 15 16 17 18 19 20 21 22 23 24 25 26 27 28 29 30 31 32 33 34 35 36 37 38 39 40 41 42 43 44 45 46 47 48 49 50

000
ASUS43 KBIS 270502
RWRND

NORTH DAKOTA REGIONAL WEATHER ROUNDUP
NATIONAL WEATHER SERVICE BISMARCK ND
1200 AM CDT FRI MAY 27 2016

NOTE: "FAIR" INDICATES FEW OR NO CLOUDS BELOW 12,000 FEET WITH NO
SIGNIFICANT WEATHER AND/OR OBSTRUCTIONS TO VISIBILITY.


NDZ001>003-009>011-017-270600-
NORTHWEST NORTH DAKOTA

CITY           SKY/WX    TMP DP  RH WIND       PRES   REMARKS
WILLISTON      CLOUDY    51  47  86 N9        29.86R
MINOT          CLOUDY    57  53  86 CALM      29.83S
MINOT AFB      LGT RAIN  55  53  92 NW5       29.83R
$$

NDZ018>021-031>035-040>046-270600-
SOUTHWEST NORTH DAKOTA

CITY           SKY/WX    TMP DP  RH WIND       PRES   REMARKS
BISMARCK       CLEAR     56  50  80 N6        29.82F
DICKINSON      CLOUDY    49  43  80 CALM      29.84S
GARRISON         N/A     53  50  89 CALM      29.84S
HETTINGER ARPT CLEAR     41  37  86 CALM      29.87F
$$

NDZ004>008-012>016-024-026-027-054-270600-
NORTHEAST NORTH DAKOTA

CITY           SKY/WX    TMP DP  RH WIND       PRES   REMARKS
GRAND FORKS    MOCLDY    58  55  90 CALM      29.78F
GRND FRKS AFB  CLOUDY    55  55  99 N2        29.78S
DEVILS LAKE    CLEAR     55  54  96 SW3       29.81R
$$

NDZ022-023-025-028>030-036>039-047>053-270600-
SOUTHEAST NORTH DAKOTA

CITY           SKY/WX    TMP DP  RH WIND       PRES   REMARKS
FARGO          MOCLDY    66  53  63 N8        29.77R
JAMESTOWN      MOCLDY    56  53  90 CALM      29.79S
$$





USA.gov is the U.S. government's official web portal to all federal, state and local government web resources and services.